Tracking 29892 objects as of 21-Nov-2024
HD Live streaming from Space Station
objects crossing your sky now

STARLINK-2588

Track STARLINK-2588 now!
10-day predictions
STARLINK-2588 is classified as:


NORAD ID: 48398
Int'l Code: 2021-038AX
Perigee: 553.5 km
Apogee: 555.2 km
Inclination: 53.1 °
Period: 95.6 minutes
Semi major axis: 6925 km
RCS: Unknown
Launch date: May 4, 2021
Source: United States (US)
Launch site: AIR FORCE EASTERN TEST RANGE (AFETR)
Your satellite tracking list
Your tracking list is empty




NASA's NSSDC Master Catalog

Two Line Element Set (TLE):
1 48398U 21038AX  24324.97301936  .00003505  00000-0  25412-3 0  9999
2 48398  53.0545 312.7016 0001239  88.1654 271.9476 15.06393489196979
Source of the keplerian elements: AFSPC